| time (UTC) | temp C | wind direction | speed KPH | gust KPH | rain 1hr cm | rain 24hr cm | rain mn cm | humidity % | barometer mb |
| 20260504042056 | 5 | 119 | 1.6 | 3.2 | 0.00 | 0.00 | 0.00 | 59 | 1008.0 |
| 20260504041611 | 5 | 0.0 | 3.2 | 0.00 | 0.00 | 0.00 | 56 | 1007.9 | |
| 20260504041038 | 5 | 81 | 0.0 | 3.2 | 0.00 | 0.00 | 0.00 | 54 | 1007.7 |
| 20260504040528 | 5 | 116 | 1.6 | 3.2 | 0.00 | 0.00 | 0.00 | 50 | 1007.7 |
| 20260504040026 | 5 | 117 | 1.6 | 4.8 | 0.00 | 0.00 | 0.00 | 50 | 1007.7 |
| 20260504035519 | 5 | 126 | 3.2 | 4.8 | 0.00 | 0.00 | 0.00 | 51 | 1007.5 |
| 20260504035111 | 5 | 110 | 1.6 | 3.2 | 0.00 | 0.00 | 0.00 | 50 | 1007.7 |
| 20260504034559 | 5 | 129 | 4.8 | 6.4 | 0.00 | 0.00 | 0.00 | 52 | 1007.6 |
| 20260504034046 | 5 | 127 | 3.2 | 6.4 | 0.00 | 0.00 | 0.00 | 57 | 1007.6 |
| 20260504033631 | 5 | 133 | 1.6 | 3.2 | 0.00 | 0.00 | 0.00 | 53 | 1007.7 |
| 20260504033021 | 6 | 140 | 3.2 | 3.2 | 0.00 | 0.00 | 0.00 | 52 | 1007.6 |
| 20260504032613 | 6 | 132 | 3.2 | 3.2 | 0.00 | 0.00 | 0.00 | 48 | 1007.6 |
| 20260504032124 | 6 | 132 | 3.2 | 4.8 | 0.00 | 0.00 | 0.00 | 48 | 1007.6 |
| 20260504031550 | 6 | 119 | 3.2 | 3.2 | 0.00 | 0.00 | 0.00 | 48 | 1007.6 |
| 20260504031033 | 6 | 116 | 3.2 | 4.8 | 0.00 | 0.00 | 0.00 | 48 | 1007.6 |
| 20260504030529 | 6 | 124 | 3.2 | 4.8 | 0.00 | 0.00 | 0.00 | 48 | 1007.5 |
| 20260504030020 | 6 | 123 | 3.2 | 4.8 | 0.00 | 0.00 | 0.00 | 48 | 1007.5 |
| 20260504025612 | 6 | 108 | 3.2 | 4.8 | 0.00 | 0.00 | 0.00 | 49 | 1007.5 |
| 20260504025055 | 6 | 109 | 3.2 | 4.8 | 0.00 | 0.00 | 0.00 | 49 | 1007.4 |
| 20260504024613 | 6 | 129 | 4.8 | 4.8 | 0.00 | 0.00 | 0.00 | 49 | 1007.5 |
| 20260504024040 | 6 | 127 | 3.2 | 4.8 | 0.00 | 0.00 | 0.00 | 48 | 1007.5 |
| 20260504023534 | 6 | 126 | 3.2 | 4.8 | 0.00 | 0.00 | 0.00 | 48 | 1007.5 |
| 20260504023102 | 6 | 121 | 3.2 | 4.8 | 0.00 | 0.00 | 0.00 | 48 | 1007.4 |
| 20260504022614 | 6 | 123 | 3.2 | 4.8 | 0.00 | 0.00 | 0.00 | 48 | 1007.4 |
| 20260504021559 | 6 | 126 | 3.2 | 6.4 | 0.00 | 0.00 | 0.00 | 47 | 1007.3 |
| 20260504021046 | 6 | 123 | 3.2 | 4.8 | 0.00 | 0.00 | 0.00 | 46 | 1007.2 |
| 20260504020537 | 7 | 115 | 3.2 | 4.8 | 0.00 | 0.00 | 0.00 | 46 | 1007.2 |
| 20260504020031 | 7 | 120 | 3.2 | 3.2 | 0.00 | 0.00 | 0.00 | 45 | 1007.2 |
| 20260504015518 | 7 | 118 | 1.6 | 4.8 | 0.00 | 0.00 | 0.00 | 45 | 1007.2 |
| 20260504015110 | 7 | 115 | 1.6 | 3.2 | 0.00 | 0.00 | 0.00 | 45 | 1007.2 |
| 20260504014559 | 7 | 114 | 1.6 | 4.8 | 0.00 | 0.00 | 0.00 | 45 | 1007.1 |
| 20260504014057 | 7 | 125 | 3.2 | 4.8 | 0.00 | 0.00 | 0.00 | 45 | 1007.2 |
| 20260504013545 | 7 | 120 | 3.2 | 4.8 | 0.00 | 0.00 | 0.00 | 44 | 1007.1 |
| 20260504013056 | 7 | 127 | 3.2 | 4.8 | 0.00 | 0.00 | 0.00 | 45 | 1007.0 |
| 20260504012522 | 7 | 129 | 3.2 | 6.4 | 0.00 | 0.00 | 0.00 | 44 | 1007.0 |
| 20260504012037 | 7 | 124 | 3.2 | 4.8 | 0.00 | 0.00 | 0.00 | 44 | 1006.8 |
| 20260504011607 | 7 | 126 | 3.2 | 4.8 | 0.00 | 0.00 | 0.00 | 44 | 1006.9 |
| 20260504011059 | 7 | 112 | 3.2 | 3.2 | 0.00 | 0.00 | 0.00 | 44 | 1006.8 |
| 20260504010557 | 7 | 126 | 3.2 | 4.8 | 0.00 | 0.00 | 0.00 | 45 | 1006.8 |
| 20260504010048 | 7 | 132 | 3.2 | 4.8 | 0.00 | 0.00 | 0.00 | 45 | 1006.6 |
| 20260504005539 | 7 | 125 | 3.2 | 4.8 | 0.00 | 0.00 | 0.00 | 45 | 1006.4 |
| 20260504005031 | 7 | 121 | 3.2 | 4.8 | 0.00 | 0.00 | 0.00 | 45 | 1006.4 |
| 20260504004521 | 7 | 114 | 3.2 | 4.8 | 0.00 | 0.00 | 0.00 | 46 | 1006.2 |
| 20260504004116 | 7 | 114 | 3.2 | 3.2 | 0.00 | 0.00 | 0.00 | 48 | 1006.1 |
| 20260504003607 | 7 | 88 | 1.6 | 3.2 | 0.00 | 0.00 | 0.00 | 47 | 1006.2 |
| 20260504003055 | 7 | 96 | 1.6 | 3.2 | 0.00 | 0.00 | 0.00 | 47 | 1006.0 |
| 20260504002543 | 7 | 90 | 1.6 | 3.2 | 0.00 | 0.00 | 0.00 | 45 | 1006.0 |
| 20260504002031 | 7 | 93 | 1.6 | 3.2 | 0.00 | 0.00 | 0.00 | 45 | 1006.0 |
| 20260504001526 | 7 | 95 | 1.6 | 3.2 | 0.00 | 0.00 | 0.00 | 46 | 1005.9 |
| 20260504001023 | 7 | 92 | 1.6 | 3.2 | 0.00 | 0.00 | 0.00 | 46 | 1005.9 |
| 20260504000516 | 7 | 90 | 1.6 | 3.2 | 0.00 | 0.00 | 0.00 | 45 | 1005.9 |
| 20260504000111 | 7 | 91 | 1.6 | 3.2 | 0.00 | 0.00 | 0.00 | 45 | 1005.8 |
| 20260503235601 | 8 | 89 | 1.6 | 3.2 | 0.00 | 0.00 | 0.00 | 46 | 1005.8 |
| 20260503235050 | 8 | 89 | 1.6 | 3.2 | 0.00 | 0.00 | 0.00 | 44 | 1005.7 |
| 20260503234546 | 8 | 90 | 1.6 | 3.2 | 0.00 | 0.00 | 0.00 | 44 | 1005.7 |
| 20260503234039 | 9 | 112 | 1.6 | 3.2 | 0.00 | 0.00 | 0.00 | 45 | 1005.7 |
| 20260503233546 | 10 | 99 | 1.6 | 3.2 | 0.00 | 0.00 | 0.00 | 44 | 1005.6 |
| 20260503233111 | 10 | 49 | 1.6 | 3.2 | 0.00 | 0.00 | 0.00 | 42 | 1005.7 |
| 20260503232620 | 10 | 309 | 1.6 | 3.2 | 0.00 | 0.00 | 0.00 | 39 | 1005.7 |
| 20260503232055 | 11 | 309 | 3.2 | 4.8 | 0.00 | 0.00 | 0.00 | 37 | 1005.6 |
| 20260503231546 | 11 | 303 | 3.2 | 4.8 | 0.00 | 0.00 | 0.00 | 37 | 1005.5 |
| 20260503231041 | 10 | 300 | 4.8 | 8.0 | 0.00 | 0.00 | 0.00 | 38 | 1005.6 |
| 20260503230527 | 10 | 291 | 4.8 | 11.3 | 0.00 | 0.00 | 0.00 | 38 | 1005.4 |
| 20260503230020 | 11 | 297 | 4.8 | 9.7 | 0.00 | 0.00 | 0.00 | 37 | 1005.5 |
| 20260503225618 | 11 | 299 | 6.4 | 14.5 | 0.00 | 0.00 | 0.00 | 38 | 1005.4 |
| 20260503225105 | 11 | 299 | 6.4 | 14.5 | 0.00 | 0.00 | 0.00 | 37 | 1005.4 |
| 20260503224556 | 11 | 289 | 8.0 | 14.5 | 0.00 | 0.00 | 0.00 | 37 | 1005.4 |
| 20260503224047 | 11 | 292 | 8.0 | 14.5 | 0.00 | 0.00 | 0.00 | 37 | 1005.3 |
| 20260503223537 | 11 | 308 | 4.8 | 17.7 | 0.00 | 0.00 | 0.00 | 38 | 1005.2 |
| 20260503223053 | 11 | 288 | 6.4 | 20.9 | 0.00 | 0.00 | 0.00 | 37 | 1005.3 |
| 20260503222517 | 11 | 320 | 4.8 | 9.7 | 0.00 | 0.00 | 0.00 | 40 | 1005.1 |
| 20260503222113 | 11 | 43 | 1.6 | 6.4 | 0.00 | 0.00 | 0.00 | 39 | 1005.1 |
| 20260503221559 | 11 | 338 | 4.8 | 24.1 | 0.00 | 0.00 | 0.00 | 38 | 1005.1 |
| 20260503221055 | 11 | 294 | 6.4 | 24.1 | 0.00 | 0.00 | 0.00 | 39 | 1005.1 |
| 20260503220545 | 11 | 294 | 8.0 | 19.3 | 0.00 | 0.00 | 0.00 | 38 | 1005.3 |
| 20260503220036 | 11 | 299 | 6.4 | 14.5 | 0.00 | 0.00 | 0.00 | 39 | 1005.1 |
| 20260503215556 | 11 | 292 | 8.0 | 17.7 | 0.00 | 0.00 | 0.00 | 39 | 1005.2 |
| 20260503215046 | 11 | 304 | 9.7 | 22.5 | 0.00 | 0.00 | 0.00 | 37 | 1005.0 |
| 20260503214600 | 11 | 298 | 8.0 | 16.1 | 0.00 | 0.00 | 0.00 | 38 | 1005.1 |
| 20260503214111 | 11 | 265 | 9.7 | 17.7 | 0.00 | 0.00 | 0.00 | 38 | 1004.8 |
| 20260503213617 | 11 | 281 | 11.3 | 20.9 | 0.00 | 0.00 | 0.00 | 38 | 1004.9 |
| 20260503213051 | 11 | 290 | 14.5 | 24.1 | 0.00 | 0.00 | 0.00 | 37 | 1004.8 |
| 20260503212549 | 11 | 296 | 12.9 | 17.7 | 0.00 | 0.00 | 0.00 | 37 | 1004.7 |
| 20260503212042 | 11 | 284 | 12.9 | 20.9 | 0.00 | 0.00 | 0.00 | 35 | 1004.6 |
| 20260503211535 | 12 | 287 | 11.3 | 20.9 | 0.00 | 0.00 | 0.00 | 36 | 1004.7 |
| 20260503211029 | 12 | 293 | 12.9 | 27.4 | 0.00 | 0.00 | 0.00 | 36 | 1004.5 |
| 20260503210527 | 12 | 299 | 11.3 | 24.1 | 0.00 | 0.00 | 0.00 | 36 | 1004.5 |
| 20260503210113 | 11 | 297 | 11.3 | 25.7 | 0.00 | 0.00 | 0.00 | 37 | 1004.5 |
| 20260503205607 | 11 | 294 | 14.5 | 24.1 | 0.00 | 0.00 | 0.00 | 37 | 1004.3 |
| 20260503205055 | 11 | 305 | 6.4 | 22.5 | 0.00 | 0.00 | 0.00 | 38 | 1004.3 |
| 20260503204542 | 11 | 300 | 9.7 | 16.1 | 0.00 | 0.00 | 0.00 | 38 | 1004.3 |
| 20260503204053 | 11 | 284 | 11.3 | 24.1 | 0.00 | 0.00 | 0.00 | 37 | 1004.3 |
| 20260503203527 | 11 | 293 | 11.3 | 16.1 | 0.00 | 0.00 | 0.00 | 39 | 1004.4 |
| 20260503203119 | 11 | 320 | 8.0 | 17.7 | 0.00 | 0.00 | 0.00 | 40 | 1004.3 |
| 20260503202604 | 10 | 306 | 6.4 | 14.5 | 0.00 | 0.00 | 0.00 | 40 | 1004.3 |
| 20260503202058 | 10 | 308 | 8.0 | 17.7 | 0.00 | 0.00 | 0.00 | 37 | 1004.2 |
| 20260503201553 | 11 | 293 | 8.0 | 17.7 | 0.00 | 0.00 | 0.00 | 38 | 1004.2 |
| 20260503201048 | 11 | 291 | 12.9 | 17.7 | 0.00 | 0.00 | 0.00 | 39 | 1004.0 |
| 20260503200542 | 11 | 289 | 6.4 | 24.1 | 0.00 | 0.00 | 0.00 | 37 | 1004.1 |
| 20260503200034 | 11 | 289 | 11.3 | 22.5 | 0.00 | 0.00 | 0.00 | 36 | 1004.0 |
| 20260503195519 | 11 | 296 | 12.9 | 22.5 | 0.00 | 0.00 | 0.00 | 36 | 1004.0 |
| 20260503195111 | 12 | 284 | 14.5 | 20.9 | 0.00 | 0.00 | 0.00 | 36 | 1004.0 |
| 20260503194559 | 11 | 284 | 16.1 | 24.1 | 0.00 | 0.00 | 0.00 | 36 | 1003.9 |
| 20260503194051 | 12 | 285 | 14.5 | 24.1 | 0.00 | 0.00 | 0.00 | 37 | 1003.9 |
| 20260503193539 | 12 | 270 | 14.5 | 20.9 | 0.00 | 0.00 | 0.00 | 36 | 1004.0 |
| 20260503193040 | 12 | 298 | 11.3 | 24.1 | 0.00 | 0.00 | 0.00 | 36 | 1003.9 |
| 20260503192527 | 12 | 282 | 14.5 | 24.1 | 0.00 | 0.00 | 0.00 | 37 | 1003.9 |
| 20260503192018 | 12 | 288 | 12.9 | 20.9 | 0.00 | 0.00 | 0.00 | 37 | 1003.8 |
| 20260503191616 | 12 | 294 | 14.5 | 24.1 | 0.00 | 0.00 | 0.00 | 36 | 1003.8 |
| 20260503191113 | 13 | 296 | 8.0 | 19.3 | 0.00 | 0.00 | 0.00 | 37 | 1003.9 |
| 20260503190602 | 12 | 319 | 3.2 | 9.7 | 0.00 | 0.00 | 0.00 | 41 | 1004.0 |
| 20260503190056 | 11 | 282 | 9.7 | 25.7 | 0.00 | 0.00 | 0.00 | 38 | 1004.0 |
| 20260503185546 | 11 | 297 | 16.1 | 25.7 | 0.00 | 0.00 | 0.00 | 38 | 1004.2 |
| 20260503185041 | 11 | 292 | 12.9 | 19.3 | 0.00 | 0.00 | 0.00 | 40 | 1004.0 |
| 20260503184529 | 10 | 292 | 12.9 | 20.9 | 0.00 | 0.00 | 0.00 | 41 | 1004.1 |
| 20260503184020 | 10 | 285 | 9.7 | 20.9 | 0.00 | 0.00 | 0.00 | 41 | 1004.2 |
| 20260503183617 | 10 | 297 | 11.3 | 25.7 | 0.00 | 0.00 | 0.00 | 43 | 1004.1 |
| 20260503183125 | 10 | 280 | 9.7 | 19.3 | 0.00 | 0.00 | 0.00 | 42 | 1004.2 |
| 20260503182553 | 10 | 296 | 12.9 | 22.5 | 0.00 | 0.00 | 0.00 | 40 | 1003.9 |
| 20260503182047 | 11 | 285 | 14.5 | 22.5 | 0.00 | 0.00 | 0.00 | 40 | 1003.9 |
| 20260503181541 | 11 | 303 | 8.0 | 17.7 | 0.00 | 0.00 | 0.00 | 41 | 1004.0 |
| 20260503181101 | 11 | 289 | 11.3 | 19.3 | 0.00 | 0.00 | 0.00 | 41 | 1004.0 |
| 20260503180531 | 10 | 288 | 11.3 | 17.7 | 0.00 | 0.00 | 0.00 | 42 | 1004.0 |
| 20260503180022 | 10 | 292 | 16.1 | 24.1 | 0.00 | 0.00 | 0.00 | 42 | 1004.2 |
| 20260503175615 | 10 | 288 | 11.3 | 25.7 | 0.00 | 0.00 | 0.00 | 43 | 1004.1 |
| 20260503175105 | 10 | 280 | 12.9 | 27.4 | 0.00 | 0.00 | 0.00 | 42 | 1004.1 |
| 20260503174559 | 10 | 292 | 12.9 | 27.4 | 0.00 | 0.00 | 0.00 | 43 | 1004.1 |
| 20260503174047 | 11 | 302 | 6.4 | 17.7 | 0.00 | 0.00 | 0.00 | 44 | 1004.0 |
| 20260503173535 | 10 | 280 | 9.7 | 17.7 | 0.00 | 0.00 | 0.00 | 44 | 1004.0 |
| 20260503173043 | 10 | 289 | 9.7 | 19.3 | 0.00 | 0.00 | 0.00 | 44 | 1004.0 |
| 20260503172632 | 10 | 319 | 8.0 | 19.3 | 0.00 | 0.00 | 0.00 | 43 | 1004.0 |
| 20260503172107 | 10 | 293 | 8.0 | 20.9 | 0.00 | 0.00 | 0.00 | 44 | 1004.0 |
| 20260503171601 | 10 | 281 | 8.0 | 17.7 | 0.00 | 0.00 | 0.00 | 45 | 1004.0 |
| 20260503171047 | 10 | 306 | 6.4 | 14.5 | 0.00 | 0.00 | 0.00 | 46 | 1004.0 |
| 20260503170541 | 9 | 282 | 9.7 | 17.7 | 0.00 | 0.00 | 0.00 | 44 | 1004.0 |
| 20260503160133 | 9 | 289 | 9.7 | 19.3 | 0.00 | 0.00 | 0.00 | 49 | 1003.8 |
| 20260503150538 | 10 | 294 | 14.5 | 27.4 | 0.00 | 0.00 | 0.00 | 53 | 1003.8 |
| 20260503140112 | 8 | 281 | 8.0 | 22.5 | 0.00 | 0.00 | 0.00 | 61 | 1004.0 |
| 20260503131026 | 7 | 281 | 8.0 | 16.1 | 0.00 | 0.00 | 0.00 | 62 | 1004.2 |
| 20260503130538 | 7 | 289 | 9.7 | 19.3 | 0.00 | 0.00 | 0.00 | 61 | 1004.3 |
| 20260503110534 | 4 | 282 | 4.8 | 12.9 | 0.00 | 0.00 | 0.00 | 66 | 1004.4 |
| 20260503110120 | 4 | 306 | 3.2 | 12.9 | 0.00 | 0.00 | 0.00 | 66 | 1004.3 |
| 20260503081521 | 5 | 298 | 4.8 | 11.3 | 0.00 | 0.00 | 0.00 | 57 | 1004.6 |
| 20260503081117 | 5 | 328 | 1.6 | 9.7 | 0.00 | 0.00 | 0.00 | 57 | 1004.8 |
| 20260503080629 | 5 | 295 | 6.4 | 16.1 | 0.00 | 0.00 | 0.00 | 57 | 1005.0 |
| 20260503080104 | 5 | 263 | 3.2 | 9.7 | 0.00 | 0.00 | 0.00 | 57 | 1004.9 |
| 20260503072614 | 6 | 294 | 4.8 | 8.0 | 0.00 | 0.00 | 0.00 | 55 | 1005.1 |
| 20260503072109 | 6 | 304 | 4.8 | 6.4 | 0.00 | 0.00 | 0.00 | 55 | 1005.2 |
| 20260503071604 | 6 | 9 | 4.8 | 8.0 | 0.00 | 0.00 | 0.00 | 54 | 1005.2 |
| 20260503071053 | 6 | 283 | 4.8 | 9.7 | 0.00 | 0.00 | 0.00 | 54 | 1005.3 |
| 20260503070547 | 6 | 289 | 4.8 | 8.0 | 0.00 | 0.00 | 0.00 | 53 | 1005.2 |
| 20260503060116 | 7 | 43 | 1.6 | 6.4 | 0.00 | 0.00 | 0.00 | 53 | 1005.9 |
| 20260503055054 | 7 | 301 | 3.2 | 9.7 | 0.00 | 0.00 | 0.00 | 52 | 1006.2 |
| 20260503054544 | 7 | 353 | 1.6 | 9.7 | 0.00 | 0.00 | 0.00 | 51 | 1006.2 |
| 20260503054039 | 7 | 310 | 1.6 | 11.3 | 0.00 | 0.00 | 0.00 | 52 | 1006.2 |
| 20260503053536 | 7 | 18 | 3.2 | 9.7 | 0.00 | 0.00 | 0.00 | 52 | 1006.1 |
| 20260503053026 | 7 | 40 | 3.2 | 12.9 | 0.00 | 0.00 | 0.00 | 52 | 1006.1 |
| 20260503052518 | 7 | 45 | 1.6 | 9.7 | 0.00 | 0.00 | 0.00 | 52 | 1006.2 |
| 20260503052137 | 7 | 11 | 1.6 | 11.3 | 0.00 | 0.00 | 0.00 | 53 | 1006.3 |
| 20260503051609 | 7 | 175 | 1.6 | 4.8 | 0.00 | 0.00 | 0.00 | 53 | 1006.2 |
| 20260503051116 | 7 | 49 | 3.2 | 4.8 | 0.00 | 0.00 | 0.00 | 55 | 1006.5 |
| 20260503050553 | 7 | 321 | 1.6 | 6.4 | 0.00 | 0.00 | 0.00 | 53 | 1006.8 |
| 20260503050044 | 7 | 130 | 1.6 | 8.0 | 0.00 | 0.00 | 0.00 | 53 | 1006.7 |
| 20260503045536 | 7 | 115 | 3.2 | 6.4 | 0.00 | 0.00 | 0.00 | 54 | 1006.5 |
| 20260503045023 | 7 | 72 | 1.6 | 8.0 | 0.00 | 0.00 | 0.00 | 55 | 1006.5 |
| 20260503044517 | 7 | 62 | 3.2 | 8.0 | 0.00 | 0.00 | 0.00 | 54 | 1006.7 |
| 20260503044109 | 7 | 54 | 1.6 | 8.0 | 0.00 | 0.00 | 0.00 | 54 | 1006.6 |
| 20260503043602 | 7 | 16 | 4.8 | 8.0 | 0.00 | 0.00 | 0.00 | 53 | 1006.8 |
| 20260503043054 | 7 | 45 | 3.2 | 11.3 | 0.00 | 0.00 | 0.00 | 53 | 1006.6 |
| 20260503042549 | 7 | 124 | 1.6 | 11.3 | 0.00 | 0.00 | 0.00 | 55 | 1006.8 |